Regional Weather Roundup
Issued by NWS Sioux Falls, SD

Home | Current Version | Previous Version | Text Only | Print | Product List | Glossary Off
Versions: 1 2 3 4 5 6 7 8 9 10 11 12 13 14 15 16 17 18 19 20 21 22 23 24 25 26 27 28 29 30 31 32 33 34 35 36 37 38 39 40 41 42 43 44 45 46 47 48 49 50

907
ASUS43 KFSD 251802
RWRFSD

WEATHER ROUNDUP FOR SE SOUTH DAKOTA/SW MINNESOTA/NW IOWA
NATIONAL WEATHER SERVICE SIOUX FALLS SD
100 PM CDT THU AUG 25 2016

NOTE: "FAIR" INDICATES FEW OR NO CLOUDS BELOW 12,000 FEET WITH NO
SIGNIFICANT WEATHER AND OR OBSTRUCTIONS TO VISIBILITY.


SDZ038>040-050-052>070-251900-
SOUTHEAST SOUTH DAKOTA

CITY           SKY/WX    TMP DP  RH WIND       PRES   REMARKS
BROOKINGS      PTSUNNY   65  53  65 NW12      30.14F
CHAMBERLAIN    SUNNY     71  51  49 NW14      30.21F
6HR MIN TEMP:  54; 6HR MAX TEMP:  71;

HURON          SUNNY     69  50  50 NW14      30.16S
6HR MIN TEMP:  50; 6HR MAX TEMP:  69;

MADISON        FAIR      64  55  72 W14G20    30.16F
MITCHELL       SUNNY     69  53  56 NW13      30.18F
6HR MIN TEMP:  53; 6HR MAX TEMP:  69;

SIOUX FALLS    PTSUNNY   70  54  56 W12       30.16S
6HR MIN TEMP:  58; 6HR MAX TEMP:  70;

WINNER         FAIR      70  49  47 NW14      30.24S
YANKTON        MOSUNNY   70  52  52 NW10      30.17F
$$

MNZ071-072-080-081-089-090-097-098-251900-
SOUTHWEST MINNESOTA

CITY           SKY/WX    TMP DP  RH WIND       PRES   REMARKS
FAIRMONT       PTSUNNY   69  55  60 NW10      30.12F
JACKSON        CLOUDY    70  50  49 W8        30.14F
LUVERNE        CLOUDY    68  52  56 W8        30.16F
MARSHALL       PTSUNNY   68  55  63 W14       30.12F
6HR MIN TEMP:  55; 6HR MAX TEMP:  68; 6HR PCP: TRACE;

MONTEVIDEO     PTSUNNY   70  55  60 NW12G18   30.12S
REDWOOD FALLS  PTSUNNY   67  54  63 W10       30.11S
TRACY          MOSUNNY   70  57  63 W6        30.13S
WINDOM         CLOUDY    70  55  60 W7        30.13F
WORTHINGTON    CLOUDY    66  54  65 W8        30.15F
$$

IAZ001>003-012>014-020>022-031-032-NEZ013-014-SDZ071-251900-
NORTHWEST IOWA

CITY           SKY/WX    TMP DP  RH WIND       PRES   REMARKS
CHEROKEE       CLOUDY    71  59  65 N8        30.14S
DENISON        CLOUDY    72  63  73 CALM      30.13R
ESTHERVILLE    CLOUDY    68  60  75 NW6       30.13F
LE MARS        CLOUDY    68  57  68 NW8G15    30.17S
ORANGE CITY    CLOUDY    66  57  72 NW10      30.16F
SHELDON        MOSUNNY   68  57  68 NW8       30.14F
SIOUX CITY     CLOUDY    69  59  70 NW10      30.16S
6HR MIN TEMP:  57; 6HR MAX TEMP:  70;

SPENCER        CLOUDY    72  58  61 NW7       30.14F
6HR MIN TEMP:  54; 6HR MAX TEMP:  72;

STORM LAKE     CLOUDY    70  59  68 VRB5      30.14F
$$

ABBREVIATIONS USED IN REMARKS
   TC - TEMPERATURE IN CELSIUS
  WCI - WIND CHILL INDEX
   HX - HEAT INDEX
  VSB - VISIBILITY





USA.gov is the U.S. government's official web portal to all federal, state and local government web resources and services.